Weather History for Detroit, MI

Change the Weather History Date:

Monday, April 28, 2014

  Actual Average Record
Temperature  
Mean Temperature 49 °F -  
Max Temperature 54 °F 62 °F 87 °F (1986)
Min Temperature 44 °F 44 °F 32 °F (2004)
Degree Days  
Heating Degree Days 16    
Moisture  
Dew Point 33 °F    
Average Humidity 52    
Maximum Humidity 66    
Minimum Humidity 41    
Precipitation  
Precipitation 0.01 in - - ()
Sea Level Pressure  
Sea Level Pressure 29.96 in    
Wind  
Wind Speed 14 mph (East)    
Max Wind Speed 23 mph    
Max Gust Speed 37 mph    
Visibility 10 miles    
Events Rain    
Averages and records for this station are not official NWS values.
T = Trace of Precipitation, MM = Missing Value Source: NWS Daily Summary

Daily Weather History Graph

Daily Weather History Graph

Search for Another Location

Airport:

Trip Planner

Search our weather history database for the weather conditions in past years. The results will help you decide how hot, cold, wet, or windy it might be!

Date:

Astronomy

Apr. 28, 2014 Rise Set
Actual Time 6:31 AM EDT 8:28 PM EDT
Civil Twilight 6:00 AM EDT 8:58 PM EDT
Nautical Twilight 5:23 AM EDT 9:36 PM EDT
Astronomical Twilight 4:43 AM EDT 10:16 PM EDT
Moon 6:09 AM EDT (4/28) 8:04 PM EDT (4/28)
Length of Visible Light 14h 57m
Length of Day
13h 57m
Waning Crescent, 0% of the Moon is Illuminated
Apr 28
Waning Crescent
Apr 29
New
May 6
First Quarter
May 14
Full
May 21
Last Quarter

Hourly Weather History & Observations

Time (EDT) Temp. Windchill Dew Point Humidity Pressure Visibility Wind Dir Wind Speed Gust Speed Precip Events Conditions
12:53 AM 46.4 °F 41.5 °F 32.0 °F 57% 30.09 in 10.0 mi ENE 10.4 mph - N/A   Clear
1:53 AM 44.6 °F 39.7 °F 33.8 °F 66% 30.08 in 10.0 mi ENE 9.2 mph - N/A   Clear
2:53 AM 46.0 °F 41.0 °F 32.0 °F 58% 30.08 in 10.0 mi ENE 10.4 mph - N/A   Clear
4:53 AM 46.0 °F 39.9 °F 30.9 °F 56% 30.05 in 10.0 mi ENE 13.8 mph 21.9 mph N/A   Clear
5:53 AM 44.6 °F 38.4 °F 32.0 °F 61% 30.02 in 10.0 mi ENE 12.7 mph - N/A   Clear
6:53 AM 46.0 °F 39.6 °F 32.0 °F 58% 30.04 in 10.0 mi East 15.0 mph - N/A   Clear
7:53 AM 46.0 °F 39.6 °F 33.1 °F 61% 30.02 in 10.0 mi ENE 15.0 mph 23.0 mph N/A   Clear
8:53 AM 48.9 °F - 32.0 °F 52% 30.01 in 10.0 mi East 17.3 mph 31.1 mph N/A   Clear
9:53 AM 51.1 °F - 32.0 °F 48% 30.01 in 10.0 mi East 18.4 mph 29.9 mph N/A   Clear
10:53 AM 52.0 °F - 30.0 °F 43% 29.99 in 10.0 mi East 23.0 mph 36.8 mph N/A   Overcast
11:53 AM 52.0 °F - 30.0 °F 43% 30.01 in 10.0 mi East 18.4 mph 29.9 mph N/A   Overcast
12:53 PM 53.1 °F - 30.9 °F 43% 30.02 in 10.0 mi East 13.8 mph 25.3 mph N/A   Overcast
1:53 PM 53.1 °F - 30.0 °F 41% 29.96 in 10.0 mi East 18.4 mph 31.1 mph 0.00 in Rain Light Rain
2:53 PM 53.1 °F - 30.0 °F 41% 29.92 in 10.0 mi East 21.9 mph 33.4 mph 0.00 in Rain Light Rain
3:53 PM 51.1 °F - 36.0 °F 56% 29.91 in 10.0 mi East 15.0 mph 24.2 mph 0.01 in Rain Light Rain
4:53 PM 53.6 °F - 35.6 °F 51% 29.91 in 10.0 mi East 15.0 mph 21.9 mph N/A   Overcast
5:53 PM 54.0 °F - 34.0 °F 47% 29.92 in 10.0 mi East 12.7 mph - N/A   Overcast
6:53 PM 54.0 °F - 34.0 °F 47% 29.91 in 10.0 mi ESE 10.4 mph - N/A   Overcast
7:53 PM 54.0 °F - 35.1 °F 49% 29.85 in 10.0 mi East 16.1 mph - N/A   Overcast
8:53 PM 53.1 °F - 36.0 °F 52% 29.86 in 10.0 mi East 15.0 mph 21.9 mph N/A   Overcast
9:53 PM 52.0 °F - 35.1 °F 53% 29.88 in 10.0 mi East 11.5 mph - N/A   Overcast
10:53 PM 51.8 °F - 35.6 °F 54% 29.83 in 10.0 mi East 15.0 mph 23.0 mph N/A   Overcast
11:04 PM 52.0 °F - 36.0 °F 54% 29.85 in 10.0 mi East 12.7 mph 21.9 mph N/A   Overcast
11:53 PM 52.0 °F - 34.0 °F 50% 29.82 in 10.0 mi East 15.0 mph 24.2 mph N/A   Overcast